Location: *
(49.7115°N, 15.0136°E)
Time: 02:59:03
(UTC+00:00)

Okean 1-7 - Pass Details

Date: 27 February 2020
Orbit: 592 x 617 km, 82.5° (Epoch: 03 April)

Event Time Altitude Azimuth Distance (km) Brightness Sun altitude
Rises 17:03:26 0° 358° (N) 2,865 6.4 -4.9°
Reaches altitude 10° 17:05:53 10° 9° (N) 1,961 5.5 -5.3°
Maximum altitude 17:09:42 29° 71° (ENE) 1,121 3.9 -5.9°
Drops below altitude 10° 17:13:30 10° 132° (SE) 1,962 5.2 -6.5°
Sets 17:15:57 0° 144° (SE) 2,865 6.2 -6.9°
